West Mecca
DateTemperatureDew Point
05/07 - 06:30 AM63.3°48.7°
05/07 - 06:15 AM63.0°49.0°
05/07 - 06:00 AM61.9°49.5°
05/07 - 05:45 AM60.5°48.8°
05/07 - 05:30 AM62.4°50.0°
05/07 - 05:15 AM63.5°49.2°
05/07 - 05:00 AM64.1°49.1°
05/07 - 04:45 AM65.4°49.5°
05/07 - 04:30 AM66.1°49.7°
05/07 - 04:15 AM65.7°49.6°
05/07 - 04:00 AM68.2°50.4°
05/07 - 03:45 AM70.3°50.3°
05/07 - 03:30 AM70.0°50.3°
05/07 - 03:15 AM68.3°50.3°
05/07 - 03:00 AM66.8°50.3°
05/07 - 02:45 AM69.9°50.8°
05/07 - 02:30 AM71.0°50.9°
05/07 - 02:15 AM71.2°51.0°
05/07 - 02:00 AM71.9°50.7°
05/07 - 01:45 AM72.4°50.6°
05/07 - 01:30 AM71.7°50.5°
05/07 - 01:15 AM70.1°50.4°
05/07 - 01:00 AM68.0°48.9°
05/07 - 12:45 AM64.5°47.6°
05/07 - 12:30 AM63.0°48.6°
05/07 - 12:15 AM64.2°48.2°
05/07 - 12:00 AM67.4°46.9°
05/06 - 11:45 PM67.9°47.1°
05/06 - 11:30 PM68.7°46.5°
05/06 - 11:15 PM68.8°47.2°
05/06 - 11:00 PM71.4°47.5°
05/06 - 10:45 PM74.5°46.0°
05/06 - 10:30 PM75.8°44.9°
05/06 - 10:15 PM75.1°45.4°
05/06 - 10:00 PM73.5°46.5°
05/06 - 09:45 PM72.7°47.5°
05/06 - 09:30 PM73.5°48.2°
05/06 - 09:15 PM73.8°48.1°
05/06 - 09:00 PM72.7°49.1°
05/06 - 08:45 PM71.6°48.4°
05/06 - 08:30 PM72.0°47.8°
05/06 - 08:15 PM73.7°47.3°
05/06 - 08:00 PM75.4°46.7°
05/06 - 07:45 PM74.8°48.7°
05/06 - 07:30 PM75.3°49.6°
05/06 - 07:15 PM76.3°49.4°
05/06 - 07:00 PM78.2°49.6°
05/06 - 06:45 PM79.6°48.7°
05/06 - 06:30 PM80.8°48.2°
05/06 - 06:15 PM82.0°48.7°
05/06 - 06:00 PM83.0°48.2°
05/06 - 05:45 PM83.8°47.9°
05/06 - 05:30 PM85.0°47.5°
05/06 - 05:15 PM85.7°47.1°
05/06 - 05:00 PM86.9°47.9°
05/06 - 04:45 PM88.1°47.7°
05/06 - 04:30 PM88.4°45.3°
05/06 - 04:15 PM88.3°45.6°
05/06 - 04:00 PM88.2°44.1°
05/06 - 03:45 PM88.2°43.9°
05/06 - 03:30 PM88.5°45.9°
05/06 - 03:15 PM88.9°46.6°
05/06 - 03:00 PM89.1°47.2°
05/06 - 02:45 PM89.2°46.0°
05/06 - 02:30 PM89.4°46.4°
05/06 - 02:15 PM89.1°46.5°
05/06 - 02:00 PM88.9°46.1°
05/06 - 01:45 PM88.8°46.4°
05/06 - 01:30 PM87.9°46.3°
05/06 - 01:15 PM86.7°46.3°
05/06 - 01:00 PM86.4°47.5°
05/06 - 12:45 PM86.4°48.1°
05/06 - 12:30 PM85.8°47.5°
05/06 - 12:15 PM85.3°49.2°
05/06 - 12:00 PM85.0°50.9°
05/06 - 11:45 AM84.0°51.9°
05/06 - 11:30 AM83.9°51.2°
05/06 - 11:15 AM81.9°50.6°
05/06 - 11:00 AM79.5°45.3°
05/06 - 10:45 AM79.4°45.0°
05/06 - 10:30 AM78.7°45.2°
05/06 - 10:15 AM78.4°45.5°
05/06 - 10:00 AM77.5°45.5°
05/06 - 09:45 AM76.4°46.1°
05/06 - 09:30 AM75.2°45.7°
05/06 - 09:15 AM74.0°46.1°
05/06 - 09:00 AM72.9°45.9°
05/06 - 08:45 AM72.2°46.1°
05/06 - 08:30 AM70.8°46.1°
05/06 - 08:15 AM69.7°45.7°
05/06 - 08:00 AM68.3°45.9°
05/06 - 07:45 AM67.1°46.0°
05/06 - 07:30 AM65.9°46.0°
05/06 - 07:15 AM64.5°46.2°
05/06 - 07:00 AM63.4°46.8°
05/06 - 06:45 AM62.1°46.5°
05/06 - 06:30 AM61.3°45.6°
05/06 - 06:15 AM60.5°45.2°
05/06 - 06:00 AM60.1°44.6°
05/06 - 05:45 AM59.5°44.3°
05/06 - 05:30 AM59.5°44.5°
05/06 - 05:15 AM61.2°44.3°
05/06 - 05:00 AM61.2°44.3°
05/06 - 04:45 AM61.2°44.5°
05/06 - 04:30 AM61.4°44.6°
05/06 - 04:15 AM61.6°44.8°
05/06 - 04:00 AM62.4°44.9°
05/06 - 03:45 AM62.5°44.9°
05/06 - 03:30 AM62.9°44.7°
05/06 - 03:15 AM63.0°44.8°
05/06 - 03:00 AM63.3°45.0°
05/06 - 02:45 AM63.8°45.1°
05/06 - 02:30 AM64.0°45.0°
05/06 - 02:15 AM64.1°45.0°
05/06 - 02:00 AM64.3°44.8°
05/06 - 01:45 AM64.3°44.7°
05/06 - 01:30 AM64.4°44.6°
05/06 - 01:15 AM64.8°44.7°
05/06 - 01:00 AM65.3°44.8°
05/06 - 12:45 AM65.8°44.8°
05/06 - 12:30 AM65.7°44.8°
05/06 - 12:15 AM65.7°44.5°
05/06 - 12:00 AM65.6°44.3°
05/05 - 11:45 PM66.2°44.1°
05/05 - 11:30 PM66.3°44.1°
05/05 - 11:15 PM66.4°44.2°
05/05 - 11:00 PM66.6°44.2°
05/05 - 10:45 PM66.5°44.4°
05/05 - 10:30 PM66.9°44.4°
05/05 - 10:15 PM67.2°44.5°
05/05 - 10:00 PM67.5°44.6°
05/05 - 09:45 PM67.9°44.5°
05/05 - 09:30 PM68.2°44.5°
05/05 - 09:15 PM68.3°44.6°
05/05 - 09:00 PM68.7°44.6°
05/05 - 08:45 PM69.1°44.5°
05/05 - 08:30 PM69.8°44.4°
05/05 - 08:15 PM70.3°44.3°
05/05 - 08:00 PM71.0°44.2°
05/05 - 07:45 PM71.6°44.0°
05/05 - 07:30 PM72.1°43.4°
05/05 - 07:15 PM73.2°43.2°
05/05 - 07:00 PM74.2°42.7°
05/05 - 06:45 PM75.2°42.7°
05/05 - 06:30 PM76.2°42.4°
05/05 - 06:15 PM76.9°41.3°
05/05 - 06:00 PM78.0°40.8°
05/05 - 05:45 PM78.8°40.4°
05/05 - 05:30 PM79.3°40.5°
05/05 - 05:15 PM80.3°40.6°
05/05 - 05:00 PM80.8°41.1°
05/05 - 04:45 PM82.9°41.5°
05/05 - 04:30 PM82.7°41.2°
05/05 - 04:15 PM82.4°41.1°
05/05 - 04:00 PM81.7°41.3°
05/05 - 03:45 PM82.1°42.1°
05/05 - 03:30 PM81.0°43.0°
05/05 - 03:15 PM83.5°46.1°
05/05 - 03:00 PM83.3°46.7°
05/05 - 02:45 PM81.5°43.6°
05/05 - 02:30 PM82.4°44.6°
05/05 - 02:15 PM82.6°45.2°
05/05 - 02:00 PM83.1°48.1°
05/05 - 01:45 PM81.4°46.7°
05/05 - 01:30 PM79.0°46.6°
05/05 - 01:15 PM81.2°48.1°
05/05 - 01:00 PM77.0°46.6°
05/05 - 12:45 PM80.2°48.2°
05/05 - 12:30 PM80.1°48.7°
05/05 - 12:15 PM80.9°48.6°
05/05 - 12:00 PM80.6°48.7°
05/05 - 11:45 AM79.1°47.8°
05/05 - 11:30 AM78.1°47.5°
05/05 - 11:15 AM78.3°47.6°
05/05 - 11:00 AM76.6°46.7°
05/05 - 10:45 AM76.0°45.7°
05/05 - 10:30 AM75.2°45.8°
05/05 - 10:15 AM73.9°45.6°
05/05 - 10:00 AM74.1°45.5°
05/05 - 09:45 AM72.4°45.1°
05/05 - 09:30 AM71.4°45.0°
05/05 - 09:15 AM70.7°45.2°
05/05 - 09:00 AM71.1°46.5°
05/05 - 08:45 AM69.6°47.3°
05/05 - 08:30 AM69.0°47.5°
05/05 - 08:15 AM68.2°47.9°
05/05 - 08:00 AM67.1°48.1°
05/05 - 07:45 AM66.3°47.5°
05/05 - 07:30 AM64.9°48.1°
05/05 - 07:15 AM63.3°47.8°